Regional Weather Roundup
Issued by NWS

Home | Current Version | Previous Version | Text Only | Print | Product List | Glossary Off
Versions: 1 2 3 4 5 6 7 8 9 10 11 12 13 14 15 16 17 18 19 20 21 22 23 24 25 26 27 28 29 30 31 32 33 34 35 36 37 38 39 40 41 42 43 44 45 46 47 48 49 50

000
ASUS43 KFSD 280210
RWRSD

WEATHER ROUNDUP FOR SOUTH DAKOTA
NATIONAL WEATHER SERVICE SIOUX FALLS SD
900 PM CDT TUE SEP 27 2016

NOTE: "FAIR" INDICATES FEW OR NO CLOUDS BELOW 12,000 FEET WITH NO
SIGNIFICANT WEATHER AND/OR OBSTRUCTIONS TO VISIBILITY.


SDZ001>005-009-010-012>017-280300-
NORTHWEST AND NORTH CENTRAL SOUTH DAKOTA

CITY           SKY/WX    TMP DP  RH WIND       PRES   REMARKS
BUFFALO          N/A     67  46  47 NW8       29.97R
FAITH            N/A     69  42  37 NE5       29.98R
MOBRIDGE       CLEAR     58  41  53 NE7       29.93R
$$

SDZ012>016-024>037-041>051-057-063-072>074-280300-
SOUTHWEST AND SOUTH CENTRAL SOUTH DAKOTA

CITY           SKY/WX    TMP DP  RH WIND       PRES   REMARKS
RAPID CTY ARPT CLEAR     67  43  41 N14       30.02R
PIERRE         CLEAR     59  43  55 NE6       29.94R
CUSTER         CLEAR     62  41  46 CALM      30.18R
ELLSWORTH AFB  CLEAR     67  43  41 NW14      30.02R
PHILIP         CLEAR     62  42  47 N8        29.96R
PINE RIDGE     CLEAR     59  44  57 E5        30.03R
WINNER         FAIR      68  43  40 CALM      29.96R
$$

SDZ004>011-016>023-039-040-280300-
NORTHEAST SOUTH DAKOTA

CITY           SKY/WX    TMP DP  RH WIND       PRES   REMARKS
ABERDEEN       CLEAR     53  37  54 N6        29.94R
WATERTOWN      CLEAR     48  33  56 N8        29.92R
BROOKINGS      CLEAR     52  36  54 N7        29.91R
SISSETON         N/A     51  42  71 NE7       29.94R
$$

SDZ017-020-022-023-036>040-048>070-280300-
SOUTHEAST SOUTH DAKOTA

CITY           SKY/WX    TMP DP  RH WIND       PRES   REMARKS
SIOUX FALLS    CLEAR     57  44  62 N7        29.89R
HURON          CLEAR     57  41  55 N8        29.92R
CHAMBERLAIN    CLEAR     68  44  42 N7        29.94R
MITCHELL       CLEAR     60  42  51 N6        29.92R
YANKTON        CLEAR     61  48  63 NW7       29.88R
$$

ABBREVIATIONS USED IN REMARKS
   TC - TEMPERATURE IN CELSIUS
  WCI - WIND CHILL INDEX
   HX - HEAT INDEX
  VSB - VISIBILITY




USA.gov is the U.S. government's official web portal to all federal, state and local government web resources and services.